| time (UTC) | temp F | wind direction | speed MPH | gust MPH | rain 1hr in | rain 24hr in | rain mn in | humidity % | barometer mb |
| 20260509141513 | 44 | 151 | 0.0 | 0.0 | 0.00 | 0.00 | 0.00 | 82 | 1021.7 |
| 20260509140012 | 44 | 151 | 0.0 | 0.0 | 0.00 | 0.00 | 0.00 | 81 | 1021.8 |
| 20260509134511 | 43 | 151 | 0.0 | 0.0 | 0.00 | 0.00 | 0.00 | 80 | 1021.9 |
| 20260509133010 | 42 | 151 | 0.0 | 0.0 | 0.00 | 0.00 | 0.00 | 79 | 1021.9 |
| 20260509131515 | 42 | 151 | 0.0 | 0.0 | 0.00 | 0.00 | 0.00 | 79 | 1021.9 |
| 20260509130016 | 42 | 151 | 0.0 | 0.0 | 0.00 | 0.00 | 0.00 | 78 | 1022.0 |
| 20260509124507 | 42 | 151 | 0.0 | 0.0 | 0.00 | 0.00 | 0.00 | 77 | 1021.9 |
| 20260509123006 | 42 | 151 | 0.0 | 0.0 | 0.00 | 0.00 | 0.00 | 76 | 1021.7 |
| 20260509121506 | 42 | 151 | 0.0 | 0.0 | 0.00 | 0.00 | 0.00 | 76 | 1021.8 |
| 20260509120003 | 42 | 151 | 0.0 | 0.0 | 0.00 | 0.00 | 0.00 | 75 | 1022.0 |
| 20260509114503 | 43 | 151 | 0.0 | 0.0 | 0.00 | 0.00 | 0.00 | 74 | 1022.2 |
| 20260509113103 | 43 | 151 | 0.0 | 0.0 | 0.00 | 0.00 | 0.00 | 73 | 1022.2 |
| 20260509111606 | 43 | 151 | 0.0 | 0.0 | 0.00 | 0.00 | 0.00 | 72 | 1022.3 |
| 20260509110059 | 43 | 151 | 0.0 | 0.0 | 0.00 | 0.00 | 0.00 | 72 | 1022.3 |
| 20260509104556 | 43 | 151 | 0.0 | 0.0 | 0.00 | 0.00 | 0.00 | 71 | 1022.3 |
| 20260509103057 | 43 | 151 | 0.0 | 0.0 | 0.00 | 0.00 | 0.00 | 71 | 1022.2 |
| 20260509101554 | 44 | 151 | 0.0 | 0.0 | 0.00 | 0.00 | 0.00 | 70 | 1022.2 |
| 20260509100053 | 44 | 151 | 0.0 | 0.0 | 0.00 | 0.00 | 0.00 | 70 | 1022.2 |
| 20260509094552 | 44 | 151 | 0.0 | 0.0 | 0.00 | 0.00 | 0.00 | 70 | 1022.4 |
| 20260509093050 | 44 | 151 | 0.0 | 0.0 | 0.00 | 0.00 | 0.00 | 69 | 1022.4 |
| 20260509091549 | 44 | 151 | 0.0 | 0.0 | 0.00 | 0.00 | 0.00 | 69 | 1022.4 |
| 20260509084546 | 45 | 151 | 0.0 | 0.0 | 0.00 | 0.00 | 0.00 | 68 | 1022.5 |
| 20260509083050 | 45 | 151 | 0.0 | 0.0 | 0.00 | 0.00 | 0.00 | 68 | 1022.6 |
| 20260509081543 | 45 | 151 | 0.0 | 0.0 | 0.00 | 0.00 | 0.00 | 68 | 1022.6 |
| 20260509080043 | 46 | 151 | 0.0 | 0.0 | 0.00 | 0.00 | 0.00 | 67 | 1022.5 |
| 20260509074539 | 46 | 151 | 0.0 | 0.0 | 0.00 | 0.00 | 0.00 | 67 | 1022.3 |
| 20260509073041 | 46 | 151 | 0.0 | 0.0 | 0.00 | 0.00 | 0.00 | 67 | 1022.3 |
| 20260509071535 | 47 | 151 | 0.0 | 0.0 | 0.00 | 0.00 | 0.00 | 67 | 1022.1 |
| 20260509070036 | 47 | 151 | 0.0 | 0.0 | 0.00 | 0.00 | 0.00 | 67 | 1022.0 |
| 20260509064534 | 48 | 151 | 0.0 | 0.0 | 0.00 | 0.00 | 0.00 | 67 | 1021.9 |
| 20260509063034 | 48 | 151 | 0.0 | 0.0 | 0.00 | 0.00 | 0.00 | 66 | 1021.9 |
| 20260509061539 | 49 | 151 | 0.0 | 0.0 | 0.00 | 0.00 | 0.00 | 66 | 1021.7 |
| 20260509060033 | 49 | 151 | 0.0 | 0.0 | 0.00 | 0.00 | 0.00 | 65 | 1021.7 |
| 20260509054530 | 50 | 151 | 0.0 | 1.0 | 0.00 | 0.00 | 0.00 | 65 | 1021.8 |
| 20260509053037 | 50 | 153 | 0.0 | 1.0 | 0.00 | 0.00 | 0.00 | 64 | 1021.8 |
| 20260509051530 | 51 | 153 | 0.0 | 1.0 | 0.00 | 0.00 | 0.00 | 64 | 1021.8 |
| 20260509050030 | 52 | 150 | 0.0 | 1.0 | 0.00 | 0.00 | 0.00 | 63 | 1021.8 |
| 20260509044527 | 52 | 150 | 0.0 | 1.0 | 0.00 | 0.00 | 0.00 | 62 | 1021.7 |
| 20260509043025 | 53 | 150 | 0.0 | 3.0 | 0.00 | 0.00 | 0.00 | 61 | 1021.6 |
| 20260509041535 | 53 | 208 | 0.0 | 2.0 | 0.00 | 0.00 | 0.00 | 60 | 1021.5 |
| 20260509040024 | 54 | 336 | 0.0 | 3.0 | 0.00 | 0.00 | 0.00 | 59 | 1021.4 |
| 20260509034522 | 54 | 104 | 0.0 | 2.0 | 0.00 | 0.00 | 0.00 | 59 | 1021.2 |
| 20260509033021 | 55 | 159 | 0.0 | 2.0 | 0.00 | 0.00 | 0.00 | 57 | 1021.0 |
| 20260509031519 | 56 | 157 | 0.0 | 3.0 | 0.00 | 0.00 | 0.00 | 56 | 1020.9 |
| 20260509030018 | 57 | 349 | 0.0 | 3.0 | 0.00 | 0.00 | 0.00 | 55 | 1020.7 |
| 20260509024516 | 57 | 305 | 1.0 | 5.0 | 0.00 | 0.00 | 0.00 | 54 | 1020.5 |
| 20260509023017 | 58 | 346 | 0.0 | 3.0 | 0.00 | 0.00 | 0.00 | 53 | 1020.5 |
| 20260509021514 | 59 | 348 | 1.0 | 6.0 | 0.00 | 0.00 | 0.00 | 52 | 1020.4 |
| 20260509020011 | 60 | 306 | 1.0 | 5.0 | 0.00 | 0.00 | 0.00 | 51 | 1020.3 |
| 20260509014513 | 60 | 360 | 1.0 | 4.0 | 0.00 | 0.00 | 0.00 | 49 | 1020.1 |
| 20260509013010 | 62 | 140 | 1.0 | 5.0 | 0.00 | 0.00 | 0.00 | 48 | 1020.0 |
| 20260509011511 | 62 | 74 | 3.0 | 10.0 | 0.00 | 0.00 | 0.00 | 48 | 1020.0 |
| 20260509010027 | 63 | 175 | 0.0 | 5.0 | 0.00 | 0.00 | 0.00 | 44 | 1020.2 |
| 20260509004522 | 63 | 218 | 0.0 | 6.0 | 0.00 | 0.00 | 0.00 | 45 | 1020.3 |
| 20260509003009 | 64 | 186 | 2.0 | 5.0 | 0.00 | 0.00 | 0.00 | 43 | 1020.2 |
| 20260509001508 | 64 | 173 | 0.0 | 6.0 | 0.00 | 0.00 | 0.00 | 41 | 1020.1 |
| 20260509000008 | 64 | 68 | 1.0 | 4.0 | 0.00 | 0.00 | 0.00 | 40 | 1020.2 |
| 20260508234515 | 65 | 171 | 0.0 | 7.0 | 0.00 | 0.00 | 0.00 | 40 | 1020.3 |
| 20260508233008 | 65 | 288 | 3.0 | 8.0 | 0.00 | 0.00 | 0.00 | 39 | 1020.2 |
| 20260508231501 | 65 | 235 | 3.0 | 8.0 | 0.00 | 0.00 | 0.00 | 40 | 1020.1 |
| 20260508230107 | 64 | 120 | 1.0 | 6.0 | 0.00 | 0.00 | 0.00 | 44 | 1020.0 |
| 20260508224559 | 63 | 148 | 4.0 | 10.0 | 0.00 | 0.00 | 0.00 | 42 | 1020.1 |
| 20260508223059 | 63 | 176 | 1.0 | 5.0 | 0.00 | 0.00 | 0.00 | 44 | 1020.1 |
| 20260508221559 | 63 | 120 | 4.0 | 8.0 | 0.00 | 0.00 | 0.00 | 42 | 1020.1 |
| 20260508220058 | 63 | 146 | 3.0 | 9.0 | 0.00 | 0.00 | 0.00 | 47 | 1020.2 |
| 20260508214604 | 62 | 173 | 0.0 | 8.0 | 0.00 | 0.00 | 0.00 | 45 | 1020.2 |
| 20260508213053 | 62 | 103 | 1.0 | 12.0 | 0.00 | 0.00 | 0.00 | 48 | 1020.2 |
| 20260508211550 | 61 | 83 | 3.0 | 8.0 | 0.00 | 0.00 | 0.00 | 48 | 1020.0 |
| 20260508210049 | 60 | 173 | 3.0 | 6.0 | 0.00 | 0.00 | 0.00 | 49 | 1020.1 |
| 20260508204548 | 59 | 179 | 3.0 | 6.0 | 0.00 | 0.00 | 0.00 | 50 | 1020.0 |
| 20260508203046 | 59 | 201 | 1.0 | 7.0 | 0.00 | 0.00 | 0.00 | 51 | 1020.0 |
| 20260508201543 | 59 | 238 | 2.0 | 9.0 | 0.00 | 0.00 | 0.00 | 52 | 1019.9 |
| 20260508200050 | 57 | 240 | 1.0 | 4.0 | 0.00 | 0.00 | 0.00 | 54 | 1019.9 |
| 20260508194537 | 56 | 261 | 1.0 | 7.0 | 0.00 | 0.00 | 0.00 | 53 | 1019.8 |
| 20260508193037 | 56 | 195 | 2.0 | 6.0 | 0.00 | 0.00 | 0.00 | 55 | 1019.8 |
| 20260508191534 | 56 | 247 | 1.0 | 10.0 | 0.00 | 0.00 | 0.00 | 55 | 1019.8 |
| 20260508190041 | 55 | 254 | 2.0 | 10.0 | 0.00 | 0.00 | 0.00 | 56 | 1019.6 |
| 20260508184537 | 55 | 225 | 1.0 | 10.0 | 0.00 | 0.00 | 0.00 | 55 | 1019.6 |
| 20260508183031 | 55 | 176 | 2.0 | 9.0 | 0.00 | 0.00 | 0.00 | 58 | 1019.4 |
| 20260508181529 | 55 | 288 | 1.0 | 7.0 | 0.00 | 0.00 | 0.00 | 54 | 1019.3 |
| 20260508180026 | 55 | 196 | 1.0 | 8.0 | 0.00 | 0.00 | 0.00 | 57 | 1019.1 |
| 20260508174534 | 54 | 247 | 2.0 | 8.0 | 0.00 | 0.00 | 0.00 | 58 | 1019.1 |
| 20260508173020 | 54 | 215 | 2.0 | 8.0 | 0.00 | 0.00 | 0.00 | 58 | 1018.8 |
| 20260508171518 | 54 | 204 | 0.0 | 4.0 | 0.00 | 0.00 | 0.00 | 60 | 1018.7 |
| 20260508170015 | 53 | 80 | 3.0 | 9.0 | 0.00 | 0.00 | 0.00 | 59 | 1018.6 |
| 20260508164515 | 53 | 186 | 2.0 | 7.0 | 0.00 | 0.00 | 0.00 | 60 | 1018.3 |
| 20260508163010 | 52 | 270 | 1.0 | 7.0 | 0.00 | 0.00 | 0.00 | 62 | 1018.5 |
| 20260508161510 | 51 | 253 | 0.0 | 5.0 | 0.00 | 0.00 | 0.00 | 63 | 1018.3 |
| 20260508160008 | 51 | 184 | 1.0 | 5.0 | 0.00 | 0.00 | 0.00 | 63 | 1018.2 |
| 20260508154506 | 51 | 161 | 2.0 | 8.0 | 0.00 | 0.00 | 0.00 | 63 | 1018.1 |
| 20260508153004 | 51 | 153 | 1.0 | 4.0 | 0.00 | 0.00 | 0.00 | 64 | 1018.1 |
| 20260508151502 | 50 | 186 | 2.0 | 5.0 | 0.00 | 0.00 | 0.00 | 65 | 1018.4 |
| 20260508150100 | 50 | 146 | 1.0 | 7.0 | 0.00 | 0.00 | 0.00 | 65 | 1018.0 |
| 20260508144559 | 49 | 170 | 0.0 | 5.0 | 0.00 | 0.00 | 0.00 | 67 | 1017.9 |
| 20260508143102 | 49 | 170 | 1.0 | 3.0 | 0.00 | 0.00 | 0.00 | 71 | 1017.7 |